Location: Ponte Samoggia
(44.5667°N, 11.1333°E)
Time: 17:38:21
(UTC+00:00)

Cosmos 1455 - Pass Details

Date: 26 May 2022
Orbit: 492 x 514 km, 82.5° (Epoch: 06 July)

Event Time Altitude Azimuth Distance (km) Brightness Sun altitude
Rises 02:22:04 0° 332° (NNW) 2,584 6.0 -11.4°
Reaches altitude 10° 02:24:55 10° 309° (NW) 1,694 4.8 -11.0°
Maximum altitude 02:27:01 15° 274° (W) 1,419 4.0 -10.8°
Enters shadow 02:28:13 13° 252° (WSW) 1,512 4.0 -10.6°
